Location: Kumla
(59.1265°N, 15.1401°E)
Time: 09:43:37
(UTC+01:00)

Vanguard 1 Rocket - Pass Details

Date: 09 December 2023
Orbit: 653 x 4219 km, 34.3° (Epoch: 01 March)

Event Time Altitude Azimuth Distance (km) Brightness Sun altitude
Rises 05:51:27 0° 241° (WSW) 8,181 11.8 -19.4°
Reaches altitude 10° 05:58:56 10° 231° (SW) 6,740 11.5 -18.5°
Maximum altitude 06:13:25 26° 187° (S) 4,302 10.9 -16.7°
Drops below altitude 10° 06:22:58 10° 138° (SE) 4,343 11.8 -15.5°
Sets 06:26:26 0° 125° (SE) 4,885 12.7 -15.1°
